Location: Aciu?a
(46.2833°N, 22.4500°E)
Time: 12:40:09
(UTC+00:00)

Cosmos 2263 Rocket - Pass Details

Date: 25 October 2021
Orbit: 825 x 847 km, 71.0° (Epoch: 06 December)

Event Time Altitude Azimuth Distance (km) Brightness Sun altitude
Rises 16:32:39 0° 327° (NNW) 3,372 5.7 -12.0°
Reaches altitude 10° 16:35:13 10° 320° (NW) 2,434 5.1 -12.5°
Maximum altitude 16:40:19 38° 253° (WSW) 1,241 3.7 -13.4°
Drops below altitude 10° 16:45:24 10° 187° (S) 2,422 4.7 -14.2°
Sets 16:47:58 0° 180° (S) 3,353 5.4 -14.7°
